owner,sensor,date,latitude,longitude,vertical_datum,wind_speed,wind_to_direction,wind_speed_of_gust,qcFlag 
DISL,ioos:station:DISL:MBLA:1,2008-09-01T00:00:00Z,30.4367,-88.0117,14.2,10.73,35.39,-9999.0,'1111122,1111122,1111122' 
DISL,ioos:station:DISL:MBLA:1,2008-09-01T00:30:00Z,30.4367,-88.0117,14.2,12.65,39.41,-9999.0,'1111122,1111122,1111122' 
DISL,ioos:station:DISL:MBLA:1,2008-09-01T01:00:00Z,30.4367,-88.0117,14.2,12.06,38.13,-9999.0,'1111122,1111122,1111122' 
DISL,ioos:station:DISL:MBLA:1,2008-09-01T01:30:00Z,30.4367,-88.0117,14.2,12.92,53.85,-9999.0,'1111122,1111122,1111122' 
DISL,ioos:station:DISL:MBLA:1,2008-09-01T02:00:00Z,30.4367,-88.0117,14.2,8.24,54.11,-9999.0,'1111122,1111122,1111122' 
DISL,ioos:station:DISL:MBLA:1,2008-09-01T02:30:00Z,30.4367,-88.0117,14.2,9.65,46.29,-9999.0,'1111122,1111122,1111122' 
DISL,ioos:station:DISL:MBLA:1,2008-09-01T03:00:00Z,30.4367,-88.0117,14.2,10.4,36.47,-9999.0,'1111122,1111122,1111122' 
DISL,ioos:station:DISL:MBLA:1,2008-09-01T03:30:00Z,30.4367,-88.0117,14.2,12.18,43.18,-9999.0,'1111122,1111122,1111122' 
DISL,ioos:station:DISL:MBLA:1,2008-09-01T04:00:00Z,30.4367,-88.0117,14.2,12.38,43.99,-9999.0,'1111122,1111122,1111122' 
DISL,ioos:station:DISL:MBLA:1,2008-09-01T04:30:00Z,30.4367,-88.0117,14.2,12.77,45.34,-9999.0,'1111122,1111122,1111122' 
DISL,ioos:station:DISL:MBLA:1,2008-09-01T05:00:00Z,30.4367,-88.0117,14.2,13.53,60.23,-9999.0,'1111122,1111122,1111122' 
DISL,ioos:station:DISL:MBLA:1,2008-09-01T05:30:00Z,30.4367,-88.0117,14.2,13.16,59.85,-9999.0,'1111122,1111122,1111122' 
DISL,ioos:station:DISL:MBLA:1,2008-09-01T06:00:00Z,30.4367,-88.0117,14.2,12.57,63.9,-9999.0,'1111122,1111122,1111122' 
DISL,ioos:station:DISL:MBLA:1,2008-09-01T06:30:00Z,30.4367,-88.0117,14.2,13.34,64.84,-9999.0,'1111122,1111122,1111122' 
DISL,ioos:station:DISL:MBLA:1,2008-09-01T07:00:00Z,30.4367,-88.0117,14.2,11.3,71.8,-9999.0,'1111122,1111122,1111122' 
DISL,ioos:station:DISL:MBLA:1,2008-09-01T07:30:00Z,30.4367,-88.0117,14.2,13.48,70.8,-9999.0,'1111122,1111122,1111122' 
DISL,ioos:station:DISL:MBLA:1,2008-09-01T08:00:00Z,30.4367,-88.0117,14.2,14.17,68.86,-9999.0,'1111122,1111122,1111122' 
DISL,ioos:station:DISL:MBLA:1,2008-09-01T08:30:00Z,30.4367,-88.0117,14.2,14.83,68.44,-9999.0,'1111122,1111122,1111122' 
DISL,ioos:station:DISL:MBLA:1,2008-09-01T09:00:00Z,30.4367,-88.0117,14.2,14.72,78.8,-9999.0,'1111122,1111122,1111122' 
DISL,ioos:station:DISL:MBLA:1,2008-09-01T09:30:00Z,30.4367,-88.0117,14.2,17.04,90.9,-9999.0,'1111122,1111122,1111122' 
DISL,ioos:station:DISL:MBLA:1,2008-09-01T10:00:00Z,30.4367,-88.0117,14.2,20.15,107.8,-9999.0,'1111122,1111122,1111122' 
DISL,ioos:station:DISL:MBLA:1,2008-09-01T10:30:00Z,30.4367,-88.0117,14.2,17.89,102.8,-9999.0,'1111122,1111122,1111122' 
DISL,ioos:station:DISL:MBLA:1,2008-09-01T11:00:00Z,30.4367,-88.0117,14.2,16.66,98.0,-9999.0,'1111122,1111122,1111122' 
DISL,ioos:station:DISL:MBLA:1,2008-09-01T11:30:00Z,30.4367,-88.0117,14.2,14.35,102.8,-9999.0,'1111122,1111122,1111122' 
DISL,ioos:station:DISL:MBLA:1,2008-09-01T12:00:00Z,30.4367,-88.0117,14.2,17.68,98.6,-9999.0,'1111122,1111122,1111122' 
DISL,ioos:station:DISL:MBLA:1,2008-09-01T12:30:00Z,30.4367,-88.0117,14.2,17.16,99.6,-9999.0,'1111122,1111122,1111122' 
DISL,ioos:station:DISL:MBLA:1,2008-09-01T13:00:00Z,30.4367,-88.0117,14.2,17.62,107.4,-9999.0,'1111122,1111122,1111122' 
DISL,ioos:station:DISL:MBLA:1,2008-09-01T13:30:00Z,30.4367,-88.0117,14.2,18.47,110.4,-9999.0,'1111122,1111122,1111122' 
DISL,ioos:station:DISL:MBLA:1,2008-09-01T14:00:00Z,30.4367,-88.0117,14.2,19.53,113.7,-9999.0,'1111122,1111122,1111122' 
DISL,ioos:station:DISL:MBLA:1,2008-09-01T14:30:00Z,30.4367,-88.0117,14.2,18.94,112.5,-9999.0,'1111122,1111122,1111122' 
DISL,ioos:station:DISL:MBLA:1,2008-09-01T15:00:00Z,30.4367,-88.0117,14.2,19.53,113.3,-9999.0,'1111122,1111122,1111122' 
DISL,ioos:station:DISL:MBLA:1,2008-09-01T15:30:00Z,30.4367,-88.0117,14.2,19.0,120.9,-9999.0,'1111122,1111122,1111122' 
DISL,ioos:station:DISL:MBLA:1,2008-09-01T16:00:00Z,30.4367,-88.0117,14.2,18.92,117.6,-9999.0,'1111122,1111122,1111122' 
DISL,ioos:station:DISL:MBLA:1,2008-09-01T16:30:00Z,30.4367,-88.0117,14.2,18.81,115.5,-9999.0,'1111122,1111122,1111122' 
DISL,ioos:station:DISL:MBLA:1,2008-09-01T17:00:00Z,30.4367,-88.0117,14.2,20.1,117.9,-9999.0,'1111122,1111122,1111122' 
DISL,ioos:station:DISL:MBLA:1,2008-09-01T17:30:00Z,30.4367,-88.0117,14.2,19.66,116.3,-9999.0,'1111122,1111122,1111122' 
DISL,ioos:station:DISL:MBLA:1,2008-09-01T18:00:00Z,30.4367,-88.0117,14.2,18.72,124.0,-9999.0,'1111122,1111122,1111122' 
DISL,ioos:station:DISL:MBLA:1,2008-09-01T18:30:00Z,30.4367,-88.0117,14.2,19.08,115.5,-9999.0,'1111122,1111122,1111122' 
DISL,ioos:station:DISL:MBLA:1,2008-09-01T19:00:00Z,30.4367,-88.0117,14.2,19.38,129.6,-9999.0,'1111122,1111122,1111122' 
DISL,ioos:station:DISL:MBLA:1,2008-09-01T19:30:00Z,30.4367,-88.0117,14.2,17.92,130.5,-9999.0,'1111122,1111122,1111122' 
DISL,ioos:station:DISL:MBLA:1,2008-09-01T20:30:00Z,30.4367,-88.0117,14.2,16.77,128.5,-9999.0,'1111122,1111122,1111122' 
DISL,ioos:station:DISL:MBLA:1,2008-09-01T21:00:00Z,30.4367,-88.0117,14.2,19.88,127.7,-9999.0,'1111122,1111122,1111122' 
DISL,ioos:station:DISL:MBLA:1,2008-09-01T21:30:00Z,30.4367,-88.0117,14.2,18.75,128.8,-9999.0,'1111122,1111122,1111122' 
DISL,ioos:station:DISL:MBLA:1,2008-09-01T22:00:00Z,30.4367,-88.0117,14.2,12.97,141.4,-9999.0,'1111122,1111122,1111122' 
DISL,ioos:station:DISL:MBLA:1,2008-09-01T22:30:00Z,30.4367,-88.0117,14.2,17.82,127.1,-9999.0,'1111122,1111122,1111122' 
DISL,ioos:station:DISL:MBLA:1,2008-09-01T23:00:00Z,30.4367,-88.0117,14.2,16.9,135.2,-9999.0,'1111122,1111122,1111122' 
DISL,ioos:station:DISL:MBLA:1,2008-09-01T23:30:00Z,30.4367,-88.0117,14.2,14.99,142.0,-9999.0,'1111122,1111122,1111122' 
DISL,ioos:station:DISL:MBLA:1,2008-09-02T00:00:00Z,30.4367,-88.0117,14.2,16.6,130.2,-9999.0,'1111122,1111122,1111122' 
DISL,ioos:station:DISL:MBLA:1,2008-09-02T00:30:00Z,30.4367,-88.0117,14.2,16.66,123.0,-9999.0,'1111122,1111122,1111122' 
DISL,ioos:station:DISL:MBLA:1,2008-09-02T01:00:00Z,30.4367,-88.0117,14.2,15.53,126.5,-9999.0,'1111122,1111122,1111122' 
DISL,ioos:station:DISL:MBLA:1,2008-09-02T01:30:00Z,30.4367,-88.0117,14.2,15.85,122.7,-9999.0,'1111122,1111122,1111122' 
DISL,ioos:station:DISL:MBLA:1,2008-09-02T02:00:00Z,30.4367,-88.0117,14.2,15.97,122.0,-9999.0,'1111122,1111122,1111122' 
DISL,ioos:station:DISL:MBLA:1,2008-09-02T02:30:00Z,30.4367,-88.0117,14.2,16.31,127.3,-9999.0,'1111122,1111122,1111122' 
DISL,ioos:station:DISL:MBLA:1,2008-09-02T03:00:00Z,30.4367,-88.0117,14.2,15.72,126.8,-9999.0,'1111122,1111122,1111122' 
DISL,ioos:station:DISL:MBLA:1,2008-09-02T03:30:00Z,30.4367,-88.0117,14.2,16.41,128.5,-9999.0,'1111122,1111122,1111122' 
DISL,ioos:station:DISL:MBLA:1,2008-09-02T04:00:00Z,30.4367,-88.0117,14.2,14.7,130.0,-9999.0,'1111122,1111122,1111122' 
DISL,ioos:station:DISL:MBLA:1,2008-09-02T04:30:00Z,30.4367,-88.0117,14.2,14.41,133.1,-9999.0,'1111122,1111122,1111122' 
DISL,ioos:station:DISL:MBLA:1,2008-09-02T05:00:00Z,30.4367,-88.0117,14.2,13.69,137.9,-9999.0,'1111122,1111122,1111122' 
DISL,ioos:station:DISL:MBLA:1,2008-09-02T05:30:00Z,30.4367,-88.0117,14.2,12.66,137.4,-9999.0,'1111122,1111122,1111122' 
DISL,ioos:station:DISL:MBLA:1,2008-09-02T06:00:00Z,30.4367,-88.0117,14.2,12.55,142.2,-9999.0,'1111122,1111122,1111122' 
DISL,ioos:station:DISL:MBLA:1,2008-09-02T06:30:00Z,30.4367,-88.0117,14.2,12.51,140.8,-9999.0,'1111122,1111122,1111122' 
DISL,ioos:station:DISL:MBLA:1,2008-09-02T07:00:00Z,30.4367,-88.0117,14.2,10.98,138.1,-9999.0,'1111122,1111122,1111122' 
DISL,ioos:station:DISL:MBLA:1,2008-09-02T07:30:00Z,30.4367,-88.0117,14.2,10.05,134.1,-9999.0,'1111122,1111122,1111122' 
DISL,ioos:station:DISL:MBLA:1,2008-09-02T08:00:00Z,30.4367,-88.0117,14.2,11.25,128.2,-9999.0,'1111122,1111122,1111122' 
DISL,ioos:station:DISL:MBLA:1,2008-09-02T08:30:00Z,30.4367,-88.0117,14.2,10.88,133.8,-9999.0,'1111122,1111122,1111122' 
DISL,ioos:station:DISL:MBLA:1,2008-09-02T09:00:00Z,30.4367,-88.0117,14.2,11.47,129.8,-9999.0,'1111122,1111122,1111122' 
DISL,ioos:station:DISL:MBLA:1,2008-09-02T09:30:00Z,30.4367,-88.0117,14.2,11.41,128.8,-9999.0,'1111122,1111122,1111122' 
DISL,ioos:station:DISL:MBLA:1,2008-09-02T10:00:00Z,30.4367,-88.0117,14.2,11.04,131.9,-9999.0,'1111122,1111122,1111122' 
DISL,ioos:station:DISL:MBLA:1,2008-09-02T10:30:00Z,30.4367,-88.0117,14.2,9.96,132.0,-9999.0,'1111122,1111122,1111122' 
DISL,ioos:station:DISL:MBLA:1,2008-09-02T11:00:00Z,30.4367,-88.0117,14.2,9.68,129.7,-9999.0,'1111122,1111122,1111122' 
DISL,ioos:station:DISL:MBLA:1,2008-09-02T11:30:00Z,30.4367,-88.0117,14.2,9.04,126.2,-9999.0,'1111122,1111122,1111122' 
DISL,ioos:station:DISL:MBLA:1,2008-09-02T12:00:00Z,30.4367,-88.0117,14.2,9.52,127.7,-9999.0,'1111122,1111122,1111122' 
DISL,ioos:station:DISL:MBLA:1,2008-09-02T12:30:00Z,30.4367,-88.0117,14.2,9.3,132.1,-9999.0,'1111122,1111122,1111122' 
DISL,ioos:station:DISL:MBLA:1,2008-09-02T13:00:00Z,30.4367,-88.0117,14.2,9.2,128.1,-9999.0,'1111122,1111122,1111122' 
DISL,ioos:station:DISL:MBLA:1,2008-09-02T13:30:00Z,30.4367,-88.0117,14.2,9.72,125.5,-9999.0,'1111122,1111122,1111122' 
DISL,ioos:station:DISL:MBLA:1,2008-09-02T14:00:00Z,30.4367,-88.0117,14.2,9.81,128.9,-9999.0,'1111122,1111122,1111122' 
DISL,ioos:station:DISL:MBLA:1,2008-09-02T14:30:00Z,30.4367,-88.0117,14.2,9.38,131.9,-9999.0,'1111122,1111122,1111122' 
DISL,ioos:station:DISL:MBLA:1,2008-09-02T15:00:00Z,30.4367,-88.0117,14.2,8.77,124.8,-9999.0,'1111122,1111122,1111122' 
DISL,ioos:station:DISL:MBLA:1,2008-09-02T15:30:00Z,30.4367,-88.0117,14.2,9.81,130.9,-9999.0,'1111122,1111122,1111122' 
DISL,ioos:station:DISL:MBLA:1,2008-09-02T16:00:00Z,30.4367,-88.0117,14.2,11.39,123.8,-9999.0,'1111122,1111122,1111122' 
DISL,ioos:station:DISL:MBLA:1,2008-09-02T16:30:00Z,30.4367,-88.0117,14.2,11.02,122.9,-9999.0,'1111122,1111122,1111122' 
DISL,ioos:station:DISL:MBLA:1,2008-09-02T17:00:00Z,30.4367,-88.0117,14.2,12.19,127.1,-9999.0,'1111122,1111122,1111122' 
DISL,ioos:station:DISL:MBLA:1,2008-09-02T17:30:00Z,30.4367,-88.0117,14.2,12.01,124.8,-9999.0,'1111122,1111122,1111122' 
DISL,ioos:station:DISL:MBLA:1,2008-09-02T18:00:00Z,30.4367,-88.0117,14.2,10.08,131.4,-9999.0,'1111122,1111122,1111122' 
DISL,ioos:station:DISL:MBLA:1,2008-09-02T18:30:00Z,30.4367,-88.0117,14.2,10.24,123.5,-9999.0,'1111122,1111122,1111122' 
DISL,ioos:station:DISL:MBLA:1,2008-09-02T19:00:00Z,30.4367,-88.0117,14.2,10.08,131.1,-9999.0,'1111122,1111122,1111122' 
DISL,ioos:station:DISL:MBLA:1,2008-09-02T19:30:00Z,30.4367,-88.0117,14.2,10.87,131.5,-9999.0,'1111122,1111122,1111122' 
DISL,ioos:station:DISL:MBLA:1,2008-09-02T20:00:00Z,30.4367,-88.0117,14.2,10.41,130.9,-9999.0,'1111122,1111122,1111122' 
DISL,ioos:station:DISL:MBLA:1,2008-09-02T20:30:00Z,30.4367,-88.0117,14.2,10.57,130.5,-9999.0,'1111122,1111122,1111122' 
DISL,ioos:station:DISL:MBLA:1,2008-09-02T21:00:00Z,30.4367,-88.0117,14.2,10.92,132.1,-9999.0,'1111122,1111122,1111122' 
DISL,ioos:station:DISL:MBLA:1,2008-09-02T21:30:00Z,30.4367,-88.0117,14.2,10.01,131.2,-9999.0,'1111122,1111122,1111122' 
DISL,ioos:station:DISL:MBLA:1,2008-09-02T22:00:00Z,30.4367,-88.0117,14.2,9.92,130.4,-9999.0,'1111122,1111122,1111122' 
DISL,ioos:station:DISL:MBLA:1,2008-09-02T22:30:00Z,30.4367,-88.0117,14.2,8.76,130.6,-9999.0,'1111122,1111122,1111122' 
DISL,ioos:station:DISL:MBLA:1,2008-09-02T23:00:00Z,30.4367,-88.0117,14.2,8.27,133.1,-9999.0,'1111122,1111122,1111122' 
DISL,ioos:station:DISL:MBLA:1,2008-09-02T23:30:00Z,30.4367,-88.0117,14.2,7.41,134.5,-9999.0,'1111122,1111122,1111122' 
DISL,ioos:station:DISL:MBLA:1,2008-09-03T00:00:00Z,30.4367,-88.0117,14.2,7.44,130.7,-9999.0,'1111122,1111122,1111122' 
DISL,ioos:station:DISL:MBLA:1,2008-09-03T00:30:00Z,30.4367,-88.0117,14.2,7.3,131.6,-9999.0,'1111122,1111122,1111122' 
DISL,ioos:station:DISL:MBLA:1,2008-09-03T01:00:00Z,30.4367,-88.0117,14.2,7.06,132.9,-9999.0,'1111122,1111122,1111122' 
DISL,ioos:station:DISL:MBLA:1,2008-09-03T01:30:00Z,30.4367,-88.0117,14.2,7.68,133.2,-9999.0,'1111122,1111122,1111122' 
DISL,ioos:station:DISL:MBLA:1,2008-09-03T02:00:00Z,30.4367,-88.0117,14.2,7.66,136.1,-9999.0,'1111122,1111122,1111122' 
DISL,ioos:station:DISL:MBLA:1,2008-09-03T02:30:00Z,30.4367,-88.0117,14.2,7.25,130.8,-9999.0,'1111122,1111122,1111122' 
DISL,ioos:station:DISL:MBLA:1,2008-09-03T03:00:00Z,30.4367,-88.0117,14.2,6.85,136.2,-9999.0,'1111122,1111122,1111122' 
DISL,ioos:station:DISL:MBLA:1,2008-09-03T03:30:00Z,30.4367,-88.0117,14.2,6.53,135.4,-9999.0,'1111122,1111122,1111122' 
DISL,ioos:station:DISL:MBLA:1,2008-09-03T04:00:00Z,30.4367,-88.0117,14.2,5.68,139.4,-9999.0,'1111122,1111122,1111122' 
DISL,ioos:station:DISL:MBLA:1,2008-09-03T04:30:00Z,30.4367,-88.0117,14.2,5.86,139.0,-9999.0,'1111122,1111122,1111122' 
DISL,ioos:station:DISL:MBLA:1,2008-09-03T05:00:00Z,30.4367,-88.0117,14.2,6.64,137.4,-9999.0,'1111122,1111122,1111122' 
DISL,ioos:station:DISL:MBLA:1,2008-09-03T05:30:00Z,30.4367,-88.0117,14.2,7.45,138.1,-9999.0,'1111122,1111122,1111122' 
DISL,ioos:station:DISL:MBLA:1,2008-09-03T06:00:00Z,30.4367,-88.0117,14.2,7.74,133.7,-9999.0,'1111122,1111122,1111122' 
DISL,ioos:station:DISL:MBLA:1,2008-09-03T06:30:00Z,30.4367,-88.0117,14.2,7.42,136.4,-9999.0,'1111122,1111122,1111122' 
DISL,ioos:station:DISL:MBLA:1,2008-09-03T07:00:00Z,30.4367,-88.0117,14.2,6.55,137.8,-9999.0,'1111122,1111122,1111122' 
DISL,ioos:station:DISL:MBLA:1,2008-09-03T07:30:00Z,30.4367,-88.0117,14.2,7.52,134.2,-9999.0,'1111122,1111122,1111122' 
DISL,ioos:station:DISL:MBLA:1,2008-09-03T08:00:00Z,30.4367,-88.0117,14.2,5.99,131.2,-9999.0,'1111122,1111122,1111122' 
DISL,ioos:station:DISL:MBLA:1,2008-09-03T08:30:00Z,30.4367,-88.0117,14.2,4.18,97.9,-9999.0,'1111122,1111122,1111122' 
DISL,ioos:station:DISL:MBLA:1,2008-09-03T09:00:00Z,30.4367,-88.0117,14.2,2.84,93.7,-9999.0,'1111122,1111122,1111122' 
DISL,ioos:station:DISL:MBLA:1,2008-09-03T09:30:00Z,30.4367,-88.0117,14.2,4.09,100.0,-9999.0,'1111122,1111122,1111122' 
DISL,ioos:station:DISL:MBLA:1,2008-09-03T10:00:00Z,30.4367,-88.0117,14.2,3.62,107.0,-9999.0,'1111122,1111122,1111122' 
DISL,ioos:station:DISL:MBLA:1,2008-09-03T10:30:00Z,30.4367,-88.0117,14.2,3.62,102.3,-9999.0,'1111122,1111122,1111122' 
DISL,ioos:station:DISL:MBLA:1,2008-09-03T11:00:00Z,30.4367,-88.0117,14.2,3.63,75.8,-9999.0,'1111122,1111122,1111122' 
DISL,ioos:station:DISL:MBLA:1,2008-09-03T11:30:00Z,30.4367,-88.0117,14.2,2.81,78.1,-9999.0,'1111122,1111122,1111122' 
DISL,ioos:station:DISL:MBLA:1,2008-09-03T12:00:00Z,30.4367,-88.0117,14.2,4.31,79.2,-9999.0,'1111122,1111122,1111122' 
DISL,ioos:station:DISL:MBLA:1,2008-09-03T12:30:00Z,30.4367,-88.0117,14.2,3.87,95.2,-9999.0,'1111122,1111122,1111122' 
DISL,ioos:station:DISL:MBLA:1,2008-09-03T13:00:00Z,30.4367,-88.0117,14.2,3.79,93.1,-9999.0,'1111122,1111122,1111122' 
DISL,ioos:station:DISL:MBLA:1,2008-09-03T13:30:00Z,30.4367,-88.0117,14.2,5.97,101.9,-9999.0,'1111122,1111122,1111122' 
DISL,ioos:station:DISL:MBLA:1,2008-09-03T14:00:00Z,30.4367,-88.0117,14.2,6.47,96.4,-9999.0,'1111122,1111122,1111122' 
DISL,ioos:station:DISL:MBLA:1,2008-09-03T14:30:00Z,30.4367,-88.0117,14.2,5.08,112.1,-9999.0,'1111122,1111122,1111122' 
DISL,ioos:station:DISL:MBLA:1,2008-09-03T15:00:00Z,30.4367,-88.0117,14.2,8.18,121.6,-9999.0,'1111122,1111122,1111122' 
DISL,ioos:station:DISL:MBLA:1,2008-09-03T15:30:00Z,30.4367,-88.0117,14.2,9.19,127.8,-9999.0,'1111122,1111122,1111122' 
DISL,ioos:station:DISL:MBLA:1,2008-09-03T16:00:00Z,30.4367,-88.0117,14.2,9.33,132.8,-9999.0,'1111122,1111122,1111122' 
DISL,ioos:station:DISL:MBLA:1,2008-09-03T16:30:00Z,30.4367,-88.0117,14.2,11.13,133.0,-9999.0,'1111122,1111122,1111122' 
DISL,ioos:station:DISL:MBLA:1,2008-09-03T17:00:00Z,30.4367,-88.0117,14.2,10.17,134.1,-9999.0,'1111122,1111122,1111122' 
DISL,ioos:station:DISL:MBLA:1,2008-09-03T17:30:00Z,30.4367,-88.0117,14.2,9.41,133.6,-9999.0,'1111122,1111122,1111122' 
DISL,ioos:station:DISL:MBLA:1,2008-09-03T18:00:00Z,30.4367,-88.0117,14.2,9.39,131.8,-9999.0,'1111122,1111122,1111122' 
DISL,ioos:station:DISL:MBLA:1,2008-09-03T18:30:00Z,30.4367,-88.0117,14.2,9.57,131.6,-9999.0,'1111122,1111122,1111122' 
DISL,ioos:station:DISL:MBLA:1,2008-09-03T19:00:00Z,30.4367,-88.0117,14.2,8.64,132.5,-9999.0,'1111122,1111122,1111122' 
DISL,ioos:station:DISL:MBLA:1,2008-09-03T19:30:00Z,30.4367,-88.0117,14.2,9.45,137.1,-9999.0,'1111122,1111122,1111122' 
DISL,ioos:station:DISL:MBLA:1,2008-09-03T20:00:00Z,30.4367,-88.0117,14.2,7.85,129.8,-9999.0,'1111122,1111122,1111122' 
DISL,ioos:station:DISL:MBLA:1,2008-09-03T20:30:00Z,30.4367,-88.0117,14.2,8.29,123.2,-9999.0,'1111122,1111122,1111122' 
DISL,ioos:station:DISL:MBLA:1,2008-09-03T21:00:00Z,30.4367,-88.0117,14.2,7.76,141.2,-9999.0,'1111122,1111122,1111122' 
DISL,ioos:station:DISL:MBLA:1,2008-09-03T21:30:00Z,30.4367,-88.0117,14.2,7.98,133.6,-9999.0,'1111122,1111122,1111122' 
DISL,ioos:station:DISL:MBLA:1,2008-09-03T22:00:00Z,30.4367,-88.0117,14.2,8.97,134.3,-9999.0,'1111122,1111122,1111122' 
DISL,ioos:station:DISL:MBLA:1,2008-09-03T22:30:00Z,30.4367,-88.0117,14.2,9.11,137.8,-9999.0,'1111122,1111122,1111122' 
DISL,ioos:station:DISL:MBLA:1,2008-09-03T23:00:00Z,30.4367,-88.0117,14.2,7.68,135.2,-9999.0,'1111122,1111122,1111122' 
DISL,ioos:station:DISL:MBLA:1,2008-09-03T23:30:00Z,30.4367,-88.0117,14.2,7.82,141.1,-9999.0,'1111122,1111122,1111122' 
DISL,ioos:station:DISL:MBLA:1,2008-09-04T00:00:00Z,30.4367,-88.0117,14.2,7.43,145.1,-9999.0,'1111122,1111122,1111122' 
DISL,ioos:station:DISL:MBLA:1,2008-09-04T00:30:00Z,30.4367,-88.0117,14.2,7.6,146.4,-9999.0,'1111122,1111122,1111122' 
DISL,ioos:station:DISL:MBLA:1,2008-09-04T01:00:00Z,30.4367,-88.0117,14.2,7.39,149.5,-9999.0,'1111122,1111122,1111122' 
DISL,ioos:station:DISL:MBLA:1,2008-09-04T01:30:00Z,30.4367,-88.0117,14.2,7.94,143.6,-9999.0,'1111122,1111122,1111122' 
DISL,ioos:station:DISL:MBLA:1,2008-09-04T02:00:00Z,30.4367,-88.0117,14.2,8.29,151.6,-9999.0,'1111122,1111122,1111122' 
DISL,ioos:station:DISL:MBLA:1,2008-09-04T02:30:00Z,30.4367,-88.0117,14.2,8.74,151.3,-9999.0,'1111122,1111122,1111122' 
DISL,ioos:station:DISL:MBLA:1,2008-09-04T03:00:00Z,30.4367,-88.0117,14.2,7.87,158.6,-9999.0,'1111122,1111122,1111122' 
DISL,ioos:station:DISL:MBLA:1,2008-09-04T03:30:00Z,30.4367,-88.0117,14.2,7.21,154.6,-9999.0,'1111122,1111122,1111122' 
DISL,ioos:station:DISL:MBLA:1,2008-09-04T04:00:00Z,30.4367,-88.0117,14.2,7.11,158.5,-9999.0,'1111122,1111122,1111122' 
DISL,ioos:station:DISL:MBLA:1,2008-09-04T04:30:00Z,30.4367,-88.0117,14.2,6.21,153.2,-9999.0,'1111122,1111122,1111122' 
DISL,ioos:station:DISL:MBLA:1,2008-09-04T05:00:00Z,30.4367,-88.0117,14.2,7.38,151.8,-9999.0,'1111122,1111122,1111122' 
DISL,ioos:station:DISL:MBLA:1,2008-09-04T05:30:00Z,30.4367,-88.0117,14.2,8.95,154.0,-9999.0,'1111122,1111122,1111122' 
DISL,ioos:station:DISL:MBLA:1,2008-09-04T06:00:00Z,30.4367,-88.0117,14.2,8.41,151.1,-9999.0,'1111122,1111122,1111122' 
DISL,ioos:station:DISL:MBLA:1,2008-09-04T06:30:00Z,30.4367,-88.0117,14.2,7.64,148.3,-9999.0,'1111122,1111122,1111122' 
DISL,ioos:station:DISL:MBLA:1,2008-09-04T07:00:00Z,30.4367,-88.0117,14.2,7.72,155.5,-9999.0,'1111122,1111122,1111122' 
DISL,ioos:station:DISL:MBLA:1,2008-09-04T07:30:00Z,30.4367,-88.0117,14.2,7.59,158.4,-9999.0,'1111122,1111122,1111122' 
DISL,ioos:station:DISL:MBLA:1,2008-09-04T08:00:00Z,30.4367,-88.0117,14.2,7.82,158.7,-9999.0,'1111122,1111122,1111122' 
DISL,ioos:station:DISL:MBLA:1,2008-09-04T08:30:00Z,30.4367,-88.0117,14.2,6.96,160.3,-9999.0,'1111122,1111122,1111122' 
DISL,ioos:station:DISL:MBLA:1,2008-09-04T09:00:00Z,30.4367,-88.0117,14.2,7.3,159.1,-9999.0,'1111122,1111122,1111122' 
DISL,ioos:station:DISL:MBLA:1,2008-09-04T09:30:00Z,30.4367,-88.0117,14.2,7.61,162.4,-9999.0,'1111122,1111122,1111122' 
DISL,ioos:station:DISL:MBLA:1,2008-09-04T10:00:00Z,30.4367,-88.0117,14.2,6.76,161.1,-9999.0,'1111122,1111122,1111122' 
DISL,ioos:station:DISL:MBLA:1,2008-09-04T10:30:00Z,30.4367,-88.0117,14.2,6.76,162.1,-9999.0,'1111122,1111122,1111122' 
DISL,ioos:station:DISL:MBLA:1,2008-09-04T11:00:00Z,30.4367,-88.0117,14.2,6.97,165.1,-9999.0,'1111122,1111122,1111122' 
DISL,ioos:station:DISL:MBLA:1,2008-09-04T11:30:00Z,30.4367,-88.0117,14.2,7.25,157.8,-9999.0,'1111122,1111122,1111122' 
DISL,ioos:station:DISL:MBLA:1,2008-09-04T12:00:00Z,30.4367,-88.0117,14.2,7.09,162.6,-9999.0,'1111122,1111122,1111122' 
DISL,ioos:station:DISL:MBLA:1,2008-09-04T12:30:00Z,30.4367,-88.0117,14.2,6.68,158.9,-9999.0,'1111122,1111122,1111122' 
DISL,ioos:station:DISL:MBLA:1,2008-09-04T13:00:00Z,30.4367,-88.0117,14.2,7.02,156.9,-9999.0,'1111122,1111122,1111122' 
DISL,ioos:station:DISL:MBLA:1,2008-09-04T13:30:00Z,30.4367,-88.0117,14.2,6.79,159.0,-9999.0,'1111122,1111122,1111122' 
DISL,ioos:station:DISL:MBLA:1,2008-09-04T14:00:00Z,30.4367,-88.0117,14.2,6.61,157.6,-9999.0,'1111122,1111122,1111122' 
DISL,ioos:station:DISL:MBLA:1,2008-09-04T14:30:00Z,30.4367,-88.0117,14.2,5.78,164.5,-9999.0,'1111122,1111122,1111122' 
DISL,ioos:station:DISL:MBLA:1,2008-09-04T15:00:00Z,30.4367,-88.0117,14.2,6.85,150.2,-9999.0,'1111122,1111122,1111122' 
DISL,ioos:station:DISL:MBLA:1,2008-09-04T15:30:00Z,30.4367,-88.0117,14.2,10.23,147.1,-9999.0,'1111122,1111122,1111122' 
DISL,ioos:station:DISL:MBLA:1,2008-09-04T16:00:00Z,30.4367,-88.0117,14.2,7.83,155.1,-9999.0,'1111122,1111122,1111122' 
DISL,ioos:station:DISL:MBLA:1,2008-09-04T16:30:00Z,30.4367,-88.0117,14.2,6.12,168.8,-9999.0,'1111122,1111122,1111122' 
DISL,ioos:station:DISL:MBLA:1,2008-09-04T17:00:00Z,30.4367,-88.0117,14.2,7.59,162.7,-9999.0,'1111122,1111122,1111122' 
DISL,ioos:station:DISL:MBLA:1,2008-09-04T17:30:00Z,30.4367,-88.0117,14.2,7.89,166.8,-9999.0,'1111122,1111122,1111122' 
DISL,ioos:station:DISL:MBLA:1,2008-09-04T18:00:00Z,30.4367,-88.0117,14.2,7.97,168.4,-9999.0,'1111122,1111122,1111122' 
DISL,ioos:station:DISL:MBLA:1,2008-09-04T18:30:00Z,30.4367,-88.0117,14.2,8.35,168.9,-9999.0,'1111122,1111122,1111122' 
DISL,ioos:station:DISL:MBLA:1,2008-09-04T19:00:00Z,30.4367,-88.0117,14.2,8.39,162.1,-9999.0,'1111122,1111122,1111122' 
DISL,ioos:station:DISL:MBLA:1,2008-09-04T19:30:00Z,30.4367,-88.0117,14.2,7.94,171.9,-9999.0,'1111122,1111122,1111122' 
DISL,ioos:station:DISL:MBLA:1,2008-09-04T20:00:00Z,30.4367,-88.0117,14.2,8.11,167.9,-9999.0,'1111122,1111122,1111122' 
DISL,ioos:station:DISL:MBLA:1,2008-09-04T20:30:00Z,30.4367,-88.0117,14.2,8.13,168.8,-9999.0,'1111122,1111122,1111122' 
DISL,ioos:station:DISL:MBLA:1,2008-09-04T21:00:00Z,30.4367,-88.0117,14.2,7.37,172.9,-9999.0,'1111122,1111122,1111122' 
DISL,ioos:station:DISL:MBLA:1,2008-09-04T21:30:00Z,30.4367,-88.0117,14.2,6.87,177.9,-9999.0,'1111122,1111122,1111122' 
DISL,ioos:station:DISL:MBLA:1,2008-09-04T22:00:00Z,30.4367,-88.0117,14.2,6.34,182.0,-9999.0,'1111122,1111122,1111122' 
DISL,ioos:station:DISL:MBLA:1,2008-09-04T22:30:00Z,30.4367,-88.0117,14.2,6.27,170.0,-9999.0,'1111122,1111122,1111122' 
DISL,ioos:station:DISL:MBLA:1,2008-09-04T23:00:00Z,30.4367,-88.0117,14.2,6.48,173.5,-9999.0,'1111122,1111122,1111122' 
DISL,ioos:station:DISL:MBLA:1,2008-09-04T23:30:00Z,30.4367,-88.0117,14.2,5.71,172.6,-9999.0,'1111122,1111122,1111122' 
DISL,ioos:station:DISL:MBLA:1,2008-09-05T00:00:00Z,30.4367,-88.0117,14.2,5.95,161.0,-9999.0,'1111122,1111122,1111122' 
DISL,ioos:station:DISL:MBLA:1,2008-09-05T00:30:00Z,30.4367,-88.0117,14.2,6.26,155.6,-9999.0,'1111122,1111122,1111122' 
DISL,ioos:station:DISL:MBLA:1,2008-09-05T01:00:00Z,30.4367,-88.0117,14.2,5.69,153.8,-9999.0,'1111122,1111122,1111122' 
DISL,ioos:station:DISL:MBLA:1,2008-09-05T01:30:00Z,30.4367,-88.0117,14.2,5.52,155.5,-9999.0,'1111122,1111122,1111122' 
DISL,ioos:station:DISL:MBLA:1,2008-09-05T02:00:00Z,30.4367,-88.0117,14.2,6.26,157.7,-9999.0,'1111122,1111122,1111122' 
DISL,ioos:station:DISL:MBLA:1,2008-09-05T02:30:00Z,30.4367,-88.0117,14.2,6.25,154.5,-9999.0,'1111122,1111122,1111122' 
DISL,ioos:station:DISL:MBLA:1,2008-09-05T03:00:00Z,30.4367,-88.0117,14.2,6.68,151.8,-9999.0,'1111122,1111122,1111122' 
DISL,ioos:station:DISL:MBLA:1,2008-09-05T03:30:00Z,30.4367,-88.0117,14.2,6.62,159.9,-9999.0,'1111122,1111122,1111122' 
DISL,ioos:station:DISL:MBLA:1,2008-09-05T04:00:00Z,30.4367,-88.0117,14.2,5.86,167.3,-9999.0,'1111122,1111122,1111122' 